Zurück zum Katalog

SL-8 DEB

AktivLEO
NORAD 39696·DEBRIS·🇷🇺 Russia

Gestartet Feb 12, 1991 von Plesetsk Cosmodrome

Loading…

Nächste Überflüge (nächste 24 Stunden)

TLE

VeraltetSource: Space-Track

Epoche: Aug 20, 2026, 07:13 UTC

1 39696U 91009DK  26232.30136134  .00000052  00000-0  58742-3 0  9994
2 39696  74.0457  98.1124 0179357 151.9826 209.1006 12.22153488550331

Verfolge SL-8 DEB in Echtzeit mit AllMySat

Download on the App Store